Wind_Speed
20 19 17 15 14 14 14 13 11 9 9 8 8 9 8 9 10 11 11 12 12 14 15 16 15 14 15 18 16 15 14 14
21 18 17 17 16 15 13 12 10 9 7 8 7 7 7 8 8 8 8 8 8 10 12 14 14 14 16 18 19 16 14 14
19 19 18 17 16 14 13 12 10 9 9 7 5 6 6 3 3 3 3 5 5 5 7 8 11 13 16 16 18 17 17 15
22 19 19 19 17 15 14 12 11 10 6 6 5 3 1 2 4 4 5 5 5 6 7 7 8 10 13 13 14 15 16 17
24 21 20 19 18 17 15 14 10 9 6 5 4 2 2 3 4 5 5 7 10 10 10 11 12 14 15 15 15 14 13 13
26 24 21 19 18 18 17 15 13 11 9 6 4 1 1 2 3 5 7 9 12 14 13 13 16 18 20 19 19 21 19 18
29 27 24 21 20 19 17 16 15 13 11 7 3 4 2 2 3 3 5 7 10 12 12 14 17 19 19 17 18 18 19 23
31 28 24 21 18 18 17 15 13 14 12 9 9 8 7 5 2 2 5 8 11 13 14 14 12 12 14 14 14 16 16 17
29 26 22 19 17 18 15 17 12 13 13 11 8 5 2 3 2 7 9 12 15 15 13 12 14 10 11 12 15 17 20 22
26 21 14 5 10 12 14 10 11 10 8 7 8 6 3 7 9 12 15 19 16 16 15 14 11 12 15 16 18 20 23 25
14 14 14 9 9 11 11 15 18 17 12 9 5 1 3 7 12 17 17 14 13 14 14 13 11 14 17 19 22 25 27 20
19 13 14 15 9 15 19 18 14 10 8 7 4 5 7 11 13 12 12 11 14 16 17 17 18 21 23 21 26 26 19 16
12 11 15 16 17 15 13 11 9 7 6 8 10 12 11 11 11 11 12 13 15 17 19 21 22 25 20 24 24 12 20 10
18 17 16 15 11 10 6 2 2 4 7 9 10 10 11 12 11 11 12 14 16 18 20 20 19 21 11 13 4 13 3 20
16 14 12 10 8 6 1 1 1 4 6 5 8 9 9 10 12 13 12 10 12 14 15 14 14 15 14 7 4 3 6 7
11 9 8 8 7 6 6 5 6 5 4 6 8 9 10 12 14 11 8 9 12 15 13 12 11 14 7 12 11 9 3 5
7 5 3 3 5 8 7 4 3 2 5 10 16 13 12 12 14 11 9 7 11 12 9 9 10 11 11 13 12 15 8 6
4 4 6 5 5 6 6 5 1 7 9 16 22 20 24 20 15 5 3 9 10 8 8 11 12 10 11 12 12 8 13 9
5 4 7 5 3 3 2 7 8 2 10 22 27 28 26 18 10 3 6 8 6 7 8 8 9 8 8 9 9 11 13 13
13 13 12 12 11 10 7 10 13 16 18 21 22 23 20 13 7 3 8 3 7 7 6 7 7 9 10 11 12 11 9 12
Wind_Direction
156 159 161 161 162 162 161 151 149 146 146 131 110 104 98 90 73 68 53 54 49 36 36 31 26 17 10 6 354 342 335 340
162 163 168 168 169 168 161 154 159 152 139 135 108 109 94 76 68 64 54 47 42 32 32 30 24 16 11 5 2 355 334 324
161 166 170 169 171 166 164 157 154 151 145 148 119 114 97 87 57 47 16 26 12 360 12 12 19 13 11 6 2 357 353 335
171 168 169 170 170 164 160 154 154 149 147 158 144 132 75 341 342 354 325 333 327 322 316 323 333 347 349 348 350 350 350 350
181 176 174 169 166 160 158 162 159 167 157 169 179 212 303 325 351 360 332 322 323 321 318 310 316 320 322 317 321 322 321 326
186 182 182 175 173 172 168 167 167 172 164 166 188 198 324 349 357 344 338 339 346 340 328 322 324 325 325 315 308 305 302 301
194 190 189 187 189 182 183 182 185 185 179 168 173 224 233 264 279 348 4 0 346 343 335 320 317 322 328 328 327 319 310 291
198 195 192 200 200 197 197 197 202 199 197 201 213 223 228 241 232 32 346 335 325 318 315 320 327 329 323 328 339 344 341 337
201 198 190 194 204 187 192 197 203 203 212 225 237 249 203 145 331 315 324 322 318 313 314 320 318 332 353 356 352 350 350 345
198 194 172 172 210 174 165 177 184 191 160 127 101 85 6 313 320 329 331 328 322 324 328 329 339 351 349 347 345 345 346 350
162 156 169 168 245 150 153 125 114 109 108 120 124 77 341 326 325 331 337 337 338 345 346 353 351 347 344 339 334 335 336 331
150 146 139 192 156 127 122 106 98 96 92 74 46 356 340 346 351 351 349 350 355 355 359 351 351 352 343 333 330 325 336 335
133 120 115 137 128 98 83 86 75 77 42 17 11 3 6 15 21 19 18 12 6 1 353 351 348 348 343 339 327 332 332 334
94 110 106 99 89 60 46 56 143 74 22 356 358 2 8 5 358 6 360 355 356 0 3 356 351 352 349 324 343 322 338 335
101 102 92 81 32 6 324 171 277 296 333 8 21 11 5 7 7 2 1 7 19 14 6 4 349 0 3 4 340 327 325 328
94 76 55 43 31 7 334 294 291 316 7 31 18 14 10 1 355 2 14 17 19 9 2 13 19 26 20 6 357 340 299 323
117 97 59 14 338 331 312 291 306 106 61 30 13 2 1 356 340 331 353 4 0 358 1 21 16 3 354 342 344 335 305 332
92 69 41 348 293 288 272 284 207 105 48 359 345 330 312 308 301 297 343 340 351 359 350 342 351 360 358 355 353 338 317 304
67 41 21 14 4 347 55 106 120 93 321 326 317 309 294 285 255 268 337 341 342 355 359 5 359 354 358 357 349 342 335 327
63 56 56 41 34 35 21 348 320 307 305 311 305 301 281 240 214 321 338 307 328 336 353 345 331 330 338 331 324 322 338 337
Height
831 833 835 836 838 839 840 839 840 841 842 843 844 846 847 847 847 847 847 846 846 846 843 842 842 841 840 839 837 836 834 833
830 832 834 836 838 839 839 839 842 842 844 845 845 847 849 848 848 847 847 847 847 847 844 844 843 842 841 839 838 836 834 833
830 832 834 835 839 839 840 841 842 843 842 845 846 847 847 848 848 847 847 846 846 846 844 844 844 843 841 840 838 836 834 833
830 832 834 835 837 838 840 841 842 843 844 845 846 847 847 847 848 848 849 846 846 844 844 843 843 842 841 841 840 837 834 833
830 832 833 834 835 836 838 841 843 844 844 844 845 845 846 847 847 848 848 847 846 844 843 843 842 841 840 840 839 836 834 833
829 831 833 832 834 835 837 839 840 841 843 844 845 845 845 846 847 847 847 847 846 844 842 842 841 840 838 837 836 835 833 831
826 829 830 831 832 835 837 837 838 842 841 842 843 845 845 846 847 845 845 845 844 843 841 841 839 838 836 834 833 831 830 829
824 827 830 834 834 837 838 838 839 841 842 843 844 846 845 846 846 845 843 843 841 840 838 837 837 835 834 832 831 829 827 825
827 831 832 832 834 835 837 839 839 840 842 844 845 845 845 847 845 844 842 841 840 838 835 835 834 833 832 831 830 828 826 823
831 832 835 839 843 840 840 841 840 841 843 845 846 847 848 846 844 842 840 839 837 836 834 832 832 830 830 829 828 827 824 822
833 834 840 837 846 841 844 844 842 844 846 847 845 846 845 844 842 841 838 837 834 834 833 831 830 828 827 827 826 825 823 821
832 836 840 845 844 841 844 844 844 846 847 846 846 846 844 843 841 840 838 836 834 834 833 832 831 828 825 824 823 822 820 817
835 839 843 845 846 846 846 846 848 849 847 847 847 846 844 840 839 839 838 837 836 835 834 832 829 826 822 820 819 819 819 817
836 841 843 844 846 848 849 849 849 849 849 848 847 845 842 839 839 838 837 836 835 834 833 831 829 827 825 821 817 816 816 817
842 844 845 845 846 848 848 849 850 849 848 847 845 844 842 841 840 839 837 836 834 833 832 831 829 827 827 827 823 821 817 815
845 846 847 847 848 849 848 848 847 847 847 846 846 844 842 841 840 838 837 836 834 833 831 830 829 828 827 826 825 823 820 814
847 848 848 849 848 848 848 847 847 847 848 849 848 845 843 841 839 837 837 835 833 833 832 830 829 828 828 826 824 821 819 818
849 849 848 848 848 848 847 848 848 848 847 846 845 846 842 838 838 835 831 832 830 830 830 829 827 826 825 825 824 823 820 817
848 847 847 847 846 846 846 847 847 847 845 843 842 838 838 835 834 833 830 830 830 829 828 827 827 825 823 821 821 820 820 816
849 848 848 850 850 850 850 849 849 847 844 842 839 835 833 832 833 831 832 829 828 828 826 825 826 824 821 820 819 818 814 813